This is the latest recevied weather packets stored in our database for station/object PE1RXF-13. If no packets are shown the sender has not sent any weather packets the latest 10 day(s).
| Time | Temp. | Humidity | Pressure | Rain* | Wind** | Luminosity | Snow |
|---|---|---|---|---|---|---|---|
| 1777832055 | 15° C | 99% | 1009 hPa | 0.76 mm | - | 9 W/m² | - |
| 1777830255 | 15° C | 99% | 1009 hPa | 0.76 mm | - | 22 W/m² | - |
| 1777828455 | 15° C | 99% | 1008.9 hPa | 1.52 mm | - | 12 W/m² | - |
| 1777826655 | 15° C | 99% | 1009.1 hPa | 1.52 mm | - | 16 W/m² | - |
| 1777824855 | 15.56° C | 99% | 1008.9 hPa | 2.03 mm | - | 25 W/m² | - |
| 1777817655 | 18.89° C | 99% | 1008.4 hPa | 0 mm | - | 68 W/m² | - |
| 1777812256 | 23.89° C | 54% | 1008.3 hPa | 0 mm | - | 89 W/m² | - |
| 1777808656 | 24.44° C | 49% | 1008.7 hPa | 0 mm | - | 209 W/m² | - |
| 1777803256 | 25° C | 45% | 1009.3 hPa | 0 mm | - | 198 W/m² | - |
| 1777801455 | 23.89° C | 49% | 1009.7 hPa | 0 mm | - | 251 W/m² | - |
| 1777796055 | 22.22° C | 64% | 1010.4 hPa | 0 mm | - | 175 W/m² | - |
| 1777794254 | 20° C | 87% | 1010.5 hPa | 0 mm | - | 152 W/m² | - |
| 1777792456 | 19.44° C | 88% | 1010.4 hPa | 0 mm | - | 76 W/m² | - |
| 1777790654 | 17.22° C | 99% | 1010.5 hPa | 0 mm | - | 98 W/m² | - |
| 1777788854 | 13.89° C | 99% | 1010.5 hPa | 0 mm | - | 46 W/m² | - |
| 1777787055 | 12.78° C | 99% | 1010.6 hPa | 0 mm | - | 22 W/m² | - |
| 1777783456 | 11.67° C | 99% | 1010.7 hPa | 0 mm | - | 7 W/m² | - |
| 1777783454 | 11.67° C | 99% | 1010.7 hPa | 0 mm | - | 7 W/m² | - |
| 1777776255 | 11.67° C | 99% | 1011.6 hPa | 0 mm | - | 0 W/m² | - |
| 1777776254 | 11.67° C | 99% | 1011.6 hPa | 0 mm | - | 0 W/m² | - |
| 1777774456 | 12.22° C | 99% | 1011.3 hPa | 0 mm | - | 0 W/m² | - |
| 1777772655 | 12.22° C | 99% | 1011.4 hPa | 0 mm | - | 0 W/m² | - |
| 1777770854 | 11.67° C | 99% | 1011.9 hPa | 0 mm | - | 0 W/m² | - |
| 1777767254 | 12.78° C | 99% | 1012.6 hPa | 0 mm | - | 0 W/m² | - |
| 1777765455 | 12.22° C | 99% | 1012.4 hPa | 0 mm | - | 0 W/m² | - |
* Rain latest hour (hover to see other rain measurements)
** Current wind speed in m/s (hover to see current wind gust speed)